CW7283 Weather Reports


time (UTC)temp
F
wind
direction
speed
knots
gust
knots
rain 1hr
in
rain 24hr
in
rain mn
in
humidity
%
barometer
mb
20260905034833 68 284 0.0 0.0 0.00 0.00 0.00 34 1010.8
20260905033335 70 283 0.0 0.0 0.00 0.00 0.00 31 1010.7
20260905031835 72 315 0.0 0.0 0.00 0.00 0.00 30 1010.6
20260905030337 72 179 0.0 0.0 0.00 0.00 0.00 30 1010.2
20260905024856 73 179 0.0 0.0 0.00 0.00 0.00 33 1010.1
20260905023329 74 172 0.0 0.0 0.00 0.00 0.00 30 1010.0
20260905021832 76 150 0.0 0.0 0.00 0.00 0.00 28 1009.7
20260905020337 77 315 0.0 0.0 0.00 0.00 0.00 27 1009.4
20260905014842 79 315 0.0 0.0 0.00 0.00 0.00 28 1009.2
20260905013353 81 220 0.0 0.0 0.00 0.00 0.00 26 1008.9
20260905011846 83 220 0.0 0.0 0.00 0.00 0.00 24 1008.8
20260905010409 84 220 0.0 0.0 0.00 0.00 0.00 23 1008.5
20260905004826 86 211 0.0 0.0 0.00 0.00 0.00 21 1008.3
20260905003345 89 246 0.0 0.0 0.00 0.00 0.00 20 1008.3
20260905001906 90 236 0.0 1.7 0.00 0.00 0.00 20 1008.3
20260905000348 91 202 0.0 1.7 0.00 0.00 0.00 19 1008.3
20260904234828 91 334 0.0 3.5 0.00 0.00 0.00 19 1008.3
20260904233337 92 246 0.0 3.5 0.00 0.00 0.00 19 1008.2
20260904231833 94 189 0.0 2.6 0.00 0.00 0.00 19 1008.1
20260904230349 96 205 0.0 0.9 0.00 0.00 0.00 17 1008.1
20260904224831 97 229 0.0 0.9 0.00 0.00 0.00 17 1008.1
20260904223355 96 161 0.0 1.7 0.00 0.00 0.00 18 1008.0
20260904221912 96 198 0.0 1.7 0.00 0.00 0.00 19 1007.9
20260904220331 96 227 0.0 1.7 0.00 0.00 0.00 19 1007.9
20260904214904 95 200 0.0 1.7 0.00 0.00 0.00 18 1007.9
20260904213346 95 231 0.0 1.7 0.00 0.00 0.00 19 1007.8
20260904211837 95 154 0.0 1.7 0.00 0.00 0.00 19 1007.8
20260904210325 94 178 0.0 1.7 0.00 0.00 0.00 19 1007.9
20260904204858 94 207 0.0 1.7 0.00 0.00 0.00 19 1008.0
20260904203327 94 123 0.0 1.7 0.00 0.00 0.00 20 1008.1
20260904201909 93 153 0.0 1.7 0.00 0.00 0.00 20 1008.2
20260904200331 93 296 0.0 2.6 0.00 0.00 0.00 20 1008.2
20260904194842 93 111 0.0 2.6 0.00 0.00 0.00 20 1008.3
20260904193352 92 105 0.0 2.6 0.00 0.00 0.00 19 1008.3
20260904191851 90 104 0.0 1.7 0.00 0.00 0.00 22 1008.4
20260904190328 90 149 0.0 1.7 0.00 0.00 0.00 21 1008.6
20260904184836 88 298 0.0 1.7 0.00 0.00 0.00 23 1008.8
20260904183334 88 49 0.0 1.7 0.00 0.00 0.00 22 1008.9
20260904181827 88 292 0.0 2.6 0.00 0.00 0.00 21 1009.1
20260904180328 87 24 0.0 1.7 0.00 0.00 0.00 28 1009.4
20260904174829 85 341 0.0 1.7 0.00 0.00 0.00 31 1009.5
20260904173331 82 290 0.0 1.7 0.00 0.00 0.00 31 1009.5
20260904171837 80 290 0.0 1.7 0.00 0.00 0.00 30 1009.5
20260904170334 78 291 0.0 1.7 0.00 0.00 0.00 31 1009.6
20260904164841 75 294 0.0 1.7 0.00 0.00 0.00 32 1009.6
20260904163326 74 22 0.0 0.0 0.00 0.00 0.00 36 1009.9
20260904161837 71 73 0.0 0.0 0.00 0.00 0.00 38 1010.1
20260904160333 69 360 0.0 0.0 0.00 0.00 0.00 41 1010.0
20260904154831 67 70 0.0 0.0 0.00 0.00 0.00 44 1010.0
20260904153338 65 69 0.0 0.9 0.00 0.00 0.00 46 1010.1
20260904151836 61 70 0.0 1.7 0.00 0.00 0.00 47 1010.1
20260904150400 58 36 0.0 1.7 0.00 0.00 0.00 54 1010.0
20260904144831 56 360 0.0 1.7 0.00 0.00 0.00 55 1010.1
20260904143344 54 316 0.0 1.7 0.00 0.00 0.00 58 1010.1
20260904141837 53 186 0.0 0.9 0.00 0.00 0.00 62 1010.1
20260904140350 51 132 0.0 1.7 0.00 0.00 0.00 65 1010.0
20260904124900 48 138 0.0 0.0 0.00 0.00 0.00 71 1009.5
20260904123406 48 159 0.0 0.0 0.00 0.00 0.00 70 1009.5
20260904121849 48 223 0.0 0.0 0.00 0.00 0.00 71 1009.4
20260904120329 49 225 0.0 1.7 0.00 0.00 0.00 70 1009.5
20260904114843 49 238 0.0 0.0 0.00 0.00 0.00 68 1009.4
20260904113348 50 274 0.0 0.0 0.00 0.00 0.00 66 1009.5
20260904111842 51 274 0.0 0.0 0.00 0.00 0.00 65 1009.5
20260904110350 51 254 0.0 0.0 0.00 0.00 0.00 63 1009.5
20260904104906 52 254 0.0 0.0 0.00 0.00 0.00 61 1009.5
20260904103330 53 254 0.0 0.0 0.00 0.00 0.00 59 1009.5
20260904101848 53 225 0.0 0.0 0.00 0.00 0.00 59 1009.6
20260904100342 53 232 0.0 0.0 0.00 0.00 0.00 59 1009.7
20260904094828 53 232 0.0 0.0 0.00 0.00 0.00 58 1009.5
20260904093339 53 193 0.0 0.0 0.00 0.00 0.00 57 1009.5
20260904091833 53 230 0.0 0.0 0.00 0.00 0.00 55 1009.5
20260904090358 54 273 0.0 0.0 0.00 0.00 0.00 56 1009.5
20260904084837 54 272 0.0 0.0 0.00 0.00 0.00 56 1009.5
20260904083335 54 298 0.0 0.0 0.00 0.00 0.00 55 1009.7
20260904081832 54 304 0.0 0.9 0.00 0.00 0.00 55 1009.6
20260904080324 54 263 0.0 0.0 0.00 0.00 0.00 55 1010.0
20260904074826 54 232 0.0 0.0 0.00 0.00 0.00 54 1010.0
20260904073334 55 177 0.0 0.9 0.00 0.00 0.00 56 1010.4
20260904071836 55 244 0.0 0.0 0.00 0.00 0.00 55 1010.1
20260904070352 55 283 0.0 0.0 0.00 0.00 0.00 55 1010.3
20260904064831 55 283 0.0 0.0 0.00 0.00 0.00 55 1010.4
20260904063422 56 283 0.0 0.0 0.00 0.00 0.00 55 1010.5
20260904061849 56 303 0.0 0.0 0.00 0.00 0.00 59 1010.4
20260904060328 56 303 0.0 0.0 0.00 0.00 0.00 56 1010.5
20260904054851 57 304 0.0 0.0 0.00 0.00 0.00 54 1010.6
20260904053337 58 288 0.0 0.0 0.00 0.00 0.00 54 1010.6
20260904051826 58 288 0.0 0.0 0.00 0.00 0.00 51 1010.6
20260904050408 59 288 0.0 0.0 0.00 0.00 0.00 52 1010.6
20260904044848 60 296 0.0 0.0 0.00 0.00 0.00 49 1010.6
20260904043352 61 148 0.0 0.0 0.00 0.00 0.00 47 1010.7
20260904041855 62 219 0.0 0.0 0.00 0.00 0.00 47 1010.8
20260904040344 63 254 0.0 0.0 0.00 0.00 0.00 44 1010.9